Location: Ar Ranvel
(48.3000°N, 4.8833°W)
Time: 19:18:20
(UTC+00:00)

N. Korean satellite - Pass Details

Date: 05 October 2021
Orbit: 450 x 495 km, 97.3° (Epoch: 16 October)

Event Time Altitude Azimuth Distance (km) Brightness Sun altitude
Rises 05:04:59 0° 21° (NNE) 2,561 10.7 -14.0°
Reaches altitude 10° 05:07:14 10° 33° (NNE) 1,683 9.9 -13.7°
Maximum altitude 05:10:28 30° 96° (E) 900 8.7 -13.1°
Drops below altitude 10° 05:13:43 10° 159° (SSE) 1,685 9.5 -12.6°
Sets 05:15:57 0° 171° (S) 2,566 10.3 -12.2°
